This is the latest recevied weather packets stored in our database for station/object KO4APQ. If no packets are shown the sender has not sent any weather packets the latest 10 day(s).
| Time | Temp. | Humidity | Pressure | Rain* | Wind** | Luminosity | Snow |
|---|---|---|---|---|---|---|---|
| 1778189194 | 23.33° C | 54% | 1010.4 hPa | 0 mm | - | 501 W/m² | - |
| 1778188891 | 23.89° C | 52% | 1010.5 hPa | 0 mm | - | 516 W/m² | - |
| 1778188588 | 23.89° C | 52% | 1010.4 hPa | 0 mm | - | 534 W/m² | - |
| 1778188284 | 23.89° C | 56% | 1010.3 hPa | 0 mm | - | 557 W/m² | - |
| 1778187982 | 23.89° C | 53% | 1010.4 hPa | 0 mm | - | 578 W/m² | - |
| 1778187678 | 24.44° C | 54% | 1010.1 hPa | 0 mm | - | 593 W/m² | - |
| 1778187375 | 24.44° C | 56% | 1010.4 hPa | 0 mm | - | 612 W/m² | - |
| 1778187071 | 23.89° C | 55% | 1010.4 hPa | 0 mm | - | 664 W/m² | - |
| 1778186768 | 23.33° C | 56% | 1010.1 hPa | 0 mm | - | 225 W/m² | - |
| 1778186465 | 23.89° C | 57% | 1010.3 hPa | 0 mm | - | 219 W/m² | - |
| 1778186163 | 24.44° C | 54% | 1010.1 hPa | 0 mm | - | 794 W/m² | - |
| 1778185860 | 23.89° C | 58% | 1010.3 hPa | 0 mm | - | 813 W/m² | - |
| 1778185555 | 24.44° C | 54% | 1010.3 hPa | 0 mm | - | 345 W/m² | - |
| 1778185252 | 23.89° C | 57% | 1010.1 hPa | 0 mm | - | 841 W/m² | - |
| 1778184947 | 24.44° C | 53% | 1010.3 hPa | 0 mm | - | 816 W/m² | - |
| 1778184644 | 23.89° C | 55% | 1010.2 hPa | 0 mm | - | 810 W/m² | - |
| 1778184340 | 24.44° C | 54% | 1010.2 hPa | 0 mm | - | 833 W/m² | - |
| 1778184036 | 24.44° C | 56% | 1010.3 hPa | 0 mm | - | 848 W/m² | - |
| 1778183733 | 24.44° C | 57% | 1010.2 hPa | 0 mm | - | 845 W/m² | - |
| 1778183431 | 24.44° C | 53% | 1010.2 hPa | 0 mm | - | 840 W/m² | - |
| 1778183127 | 24.44° C | 54% | 1010 hPa | 0 mm | - | 841 W/m² | - |
| 1778182823 | 23.89° C | 56% | 1010 hPa | 0 mm | - | 861 W/m² | - |
| 1778182520 | 23.89° C | 54% | 1010.3 hPa | 0 mm | - | 894 W/m² | - |
| 1778182217 | 24.44° C | 53% | 1010.6 hPa | 0 mm | - | 869 W/m² | - |
| 1778181913 | 24.44° C | 53% | 1010.5 hPa | 0 mm | - | 919 W/m² | - |
* Rain latest hour (hover to see other rain measurements)
** Current wind speed in m/s (hover to see current wind gust speed)